TSC347 MPSM-CYYZ

Flight info

Callsign TSC347
Flight time 4h 52m
Altitude 34000
Route XOPLI UG448 IKBIX/N0443F350 Y183 PEAKY Q87 TIRCO/N0441F360 Q87 ZERBO/N0437F350 Q87 VIYAP Q69 RICCS DCT MGW DCT OXMAN LINNG3
Aircraft A21N/M-SDE2E3FGHIRWXY/LB1

Departure

Time 2026-04-07 11:40
Airport Scarlett Martinez International Airport (MPSM)

Arrival

Time 2026-04-07 16:32
Airport Toronto Pearson International Airport (CYYZ)
Time Latitude Longitude Altitude Speed Heading
2026-04-07 11:10 8.38692 -80.12917 124 ft 0 kts 75°
2026-04-07 11:30 8.38690 -80.12923 124 ft 2 kts 75°
2026-04-07 11:30 8.38686 -80.12937 124 ft 2 kts 75°
2026-04-07 11:30 8.38682 -80.12952 124 ft 2 kts 84°
2026-04-07 11:31 8.38685 -80.12967 124 ft 2 kts 122°
2026-04-07 11:31 8.38696 -80.12978 124 ft 2 kts 155°
2026-04-07 11:31 8.38708 -80.12981 124 ft 2 kts 171°
2026-04-07 11:31 8.38723 -80.12985 124 ft 2 kts 162°
2026-04-07 11:32 8.38731 -80.12987 124 ft 1 kts 165°
2026-04-07 11:32 8.38733 -80.12987 124 ft 0 kts 164°
2026-04-07 11:34 8.38732 -80.12987 124 ft 0 kts 164°
2026-04-07 11:35 8.38718 -80.12986 124 ft 3 kts 181°
2026-04-07 11:35 8.38699 -80.13001 124 ft 4 kts 244°
2026-04-07 11:35 8.38682 -80.13034 124 ft 5 kts 246°
2026-04-07 11:35 8.38668 -80.13074 123 ft 6 kts 251°
2026-04-07 11:36 8.38657 -80.13110 123 ft 0 kts 259°
2026-04-07 11:36 8.38656 -80.13116 123 ft 1 kts 259°
2026-04-07 11:36 8.38657 -80.13126 123 ft 1 kts 288°
2026-04-07 11:37 8.38667 -80.13141 123 ft 4 kts 313°
2026-04-07 11:37 8.38701 -80.13160 124 ft 6 kts 339°
2026-04-07 11:37 8.38751 -80.13177 125 ft 9 kts 343°
2026-04-07 11:37 8.38827 -80.13199 126 ft 12 kts 345°
2026-04-07 11:38 8.38912 -80.13222 128 ft 12 kts 345°
2026-04-07 11:38 8.38995 -80.13253 129 ft 11 kts 323°
2026-04-07 11:38 8.39033 -80.13277 130 ft 3 kts
2026-04-07 11:38 8.39034 -80.13261 129 ft 3 kts 140°
2026-04-07 11:39 8.39011 -80.13248 130 ft 2 kts 158°
2026-04-07 11:39 8.38924 -80.13220 128 ft 46 kts 164°
2026-04-07 11:39 8.38351 -80.13060 121 ft 121 kts 164°
2026-04-07 11:39 8.37330 -80.12768 103 ft 180 kts 163°
2026-04-07 11:40 8.36058 -80.12402 565 ft 191 kts 163°
2026-04-07 11:40 8.34794 -80.12039 1292 ft 191 kts 163°
2026-04-07 11:40 8.33497 -80.11663 1894 ft 198 kts 161°
2026-04-07 11:40 8.32187 -80.11212 2391 ft 205 kts 156°
2026-04-07 11:41 8.30878 -80.10438 2648 ft 225 kts 135°
2026-04-07 11:41 8.29954 -80.09144 3018 ft 234 kts 105°
2026-04-07 11:41 8.29767 -80.07503 3361 ft 244 kts 75°
2026-04-07 11:41 8.30417 -80.05932 3847 ft 249 kts 49°
2026-04-07 11:42 8.31761 -80.04832 4451 ft 254 kts 22°
2026-04-07 11:42 8.33488 -80.04478 5139 ft 258 kts 358°
2026-04-07 11:42 8.35296 -80.04781 5689 ft 271 kts 349°
2026-04-07 11:42 8.37224 -80.05113 6183 ft 284 kts 353°
2026-04-07 11:43 8.39146 -80.05381 7173 ft 276 kts 359°
2026-04-07 11:43 8.40997 -80.05084 7981 ft 271 kts 21°
2026-04-07 11:43 8.42761 -80.04421 8591 ft 276 kts 14°
2026-04-07 11:43 8.44705 -80.04369 9128 ft 285 kts 354°
2026-04-07 11:44 8.46675 -80.04720 9707 ft 290 kts 351°
2026-04-07 11:44 8.48678 -80.05150 10252 ft 295 kts 350°
2026-04-07 11:44 8.50736 -80.05601 10572 ft 309 kts 349°
2026-04-07 11:44 8.52906 -80.06026 10838 ft 323 kts 353°
2026-04-07 11:45 8.55183 -80.06337 11112 ft 337 kts 354°
2026-04-07 11:45 8.57570 -80.06625 11459 ft 348 kts 354°
2026-04-07 11:45 8.59994 -80.06821 11968 ft 351 kts 359°
2026-04-07 11:45 8.62452 -80.06844 12534 ft 353 kts
2026-04-07 11:46 8.64913 -80.06838 13060 ft 357 kts
2026-04-07 11:46 8.67413 -80.06831 13569 ft 360 kts
2026-04-07 11:46 8.69968 -80.06821 14067 ft 364 kts
2026-04-07 11:46 8.72491 -80.06911 14526 ft 369 kts 355°
2026-04-07 11:47 8.75091 -80.07217 15004 ft 373 kts 353°
2026-04-07 11:47 8.77677 -80.07560 15480 ft 376 kts 352°
2026-04-07 11:47 8.80281 -80.07903 15959 ft 379 kts 353°
2026-04-07 11:47 8.82911 -80.08238 16425 ft 383 kts 353°
2026-04-07 11:48 8.85566 -80.08567 16866 ft 386 kts 353°
2026-04-07 11:48 8.88268 -80.08897 17299 ft 390 kts 353°
2026-04-07 11:48 8.90978 -80.09222 17677 ft 395 kts 353°
2026-04-07 11:48 8.93724 -80.09550 18062 ft 399 kts 352°
2026-04-07 11:49 8.96495 -80.09878 18506 ft 401 kts 352°
2026-04-07 11:49 8.99280 -80.10209 18988 ft 401 kts 352°
2026-04-07 11:49 9.02052 -80.10538 19475 ft 400 kts 352°
2026-04-07 11:49 9.04815 -80.10866 19946 ft 400 kts 352°
2026-04-07 11:50 9.07591 -80.11197 20389 ft 400 kts 352°
2026-04-07 11:50 9.10364 -80.11525 20816 ft 400 kts 351°
2026-04-07 11:50 9.13147 -80.11855 21232 ft 400 kts 351°
2026-04-07 11:50 9.15925 -80.12185 21634 ft 400 kts 351°
2026-04-07 11:51 9.18712 -80.12515 22015 ft 401 kts 351°
2026-04-07 11:51 9.21464 -80.12840 22376 ft 402 kts 351°
2026-04-07 11:51 9.24273 -80.13174 22770 ft 403 kts 351°
2026-04-07 11:51 9.27066 -80.13506 23189 ft 403 kts 351°
2026-04-07 11:52 9.29866 -80.13841 23542 ft 404 kts 351°
2026-04-07 11:52 9.32637 -80.14171 23880 ft 406 kts 351°
2026-04-07 11:52 9.35491 -80.14510 24194 ft 409 kts 351°
2026-04-07 11:52 9.38319 -80.14846 24504 ft 411 kts 351°
2026-04-07 11:53 9.41165 -80.15184 24789 ft 414 kts 351°
2026-04-07 11:53 9.44060 -80.15528 25092 ft 416 kts 351°
2026-04-07 11:53 9.46935 -80.15870 25382 ft 418 kts 351°
2026-04-07 11:53 9.49862 -80.16218 25664 ft 421 kts 351°
2026-04-07 11:54 9.52776 -80.16564 25929 ft 423 kts 351°
2026-04-07 11:54 9.55713 -80.16914 26189 ft 425 kts 351°
2026-04-07 11:54 9.58670 -80.17265 26470 ft 428 kts 351°
2026-04-07 11:54 9.61630 -80.17615 26733 ft 430 kts 351°
2026-04-07 11:55 9.64639 -80.17972 26984 ft 432 kts 351°
2026-04-07 11:55 9.67619 -80.18326 27214 ft 434 kts 351°
2026-04-07 11:55 9.70620 -80.18684 27448 ft 437 kts 351°
2026-04-07 11:55 9.73667 -80.19046 27691 ft 439 kts 351°
2026-04-07 11:56 9.76717 -80.19408 27929 ft 441 kts 351°
2026-04-07 11:56 9.79773 -80.19772 28165 ft 442 kts 351°
2026-04-07 11:56 9.82874 -80.20142 28397 ft 445 kts 351°
2026-04-07 11:56 9.85937 -80.20506 28607 ft 447 kts 351°
2026-04-07 11:57 9.89066 -80.20877 28826 ft 449 kts 351°
2026-04-07 11:57 9.92175 -80.21248 29024 ft 451 kts 351°
2026-04-07 11:57 9.95283 -80.21618 29311 ft 451 kts 351°
2026-04-07 11:57 9.98428 -80.21991 29603 ft 451 kts 351°
2026-04-07 11:58 10.01538 -80.22361 29846 ft 452 kts 351°
2026-04-07 11:58 10.04657 -80.22732 29888 ft 452 kts 350°
2026-04-07 11:58 10.10935 -80.23482 29895 ft 452 kts 350°
2026-04-07 11:59 10.17206 -80.24228 29893 ft 452 kts 350°
2026-04-07 11:59 10.23470 -80.24977 29892 ft 452 kts 350°
2026-04-07 12:00 10.29725 -80.25724 29894 ft 455 kts 350°
2026-04-07 12:00 10.36015 -80.26475 29892 ft 455 kts 350°
2026-04-07 12:01 10.42312 -80.27228 29894 ft 454 kts 350°
2026-04-07 12:01 10.48617 -80.27981 29894 ft 455 kts 350°
2026-04-07 12:02 10.54909 -80.28734 29892 ft 454 kts 350°
2026-04-07 12:02 10.61225 -80.29488 29898 ft 455 kts 350°
2026-04-07 12:03 10.67532 -80.30242 29910 ft 458 kts 349°
2026-04-07 12:03 10.73903 -80.31006 29910 ft 458 kts 350°
2026-04-07 12:04 10.80245 -80.31764 29912 ft 458 kts 349°
2026-04-07 12:04 10.86583 -80.32524 29997 ft 461 kts 350°
2026-04-07 12:05 10.89753 -80.32905 30300 ft 460 kts 350°
2026-04-07 12:05 10.92963 -80.33287 30644 ft 458 kts 349°
2026-04-07 12:05 10.96131 -80.33673 30913 ft 458 kts 349°
2026-04-07 12:05 10.99310 -80.34071 31159 ft 458 kts 349°
2026-04-07 12:06 11.02480 -80.34461 31392 ft 459 kts 349°
2026-04-07 12:06 11.05662 -80.34848 31626 ft 460 kts 349°
2026-04-07 12:06 11.08816 -80.35228 31875 ft 460 kts 349°
2026-04-07 12:06 11.12004 -80.35610 32129 ft 460 kts 349°
2026-04-07 12:07 11.15199 -80.35994 32364 ft 460 kts 348°
2026-04-07 12:07 11.18403 -80.36378 32570 ft 460 kts 348°
2026-04-07 12:07 11.21590 -80.36762 32749 ft 461 kts 348°
2026-04-07 12:07 11.24784 -80.37146 32904 ft 463 kts 348°
2026-04-07 12:08 11.27977 -80.37530 33108 ft 463 kts 348°
2026-04-07 12:08 11.31189 -80.37917 33343 ft 463 kts 348°
2026-04-07 12:08 11.34404 -80.38306 33549 ft 463 kts 348°
2026-04-07 12:08 11.37624 -80.38692 33737 ft 464 kts 348°
2026-04-07 12:09 11.40826 -80.39074 33890 ft 464 kts 348°
2026-04-07 12:09 11.44019 -80.39458 33891 ft 464 kts 348°
2026-04-07 12:09 11.50464 -80.40233 33895 ft 463 kts 347°
2026-04-07 12:10 11.56855 -80.41005 33903 ft 464 kts 347°
2026-04-07 12:10 11.63310 -80.41782 33896 ft 464 kts 347°
2026-04-07 12:11 11.69729 -80.42553 33902 ft 463 kts 347°
2026-04-07 12:11 11.76100 -80.43322 33904 ft 462 kts 347°
2026-04-07 12:12 11.82485 -80.44092 33898 ft 461 kts 347°
2026-04-07 12:12 11.88901 -80.44867 33907 ft 461 kts 347°
2026-04-07 12:13 11.95258 -80.45633 33913 ft 459 kts 346°
2026-04-07 12:13 12.01642 -80.46404 33914 ft 459 kts 346°
2026-04-07 12:14 12.07996 -80.47171 33919 ft 459 kts 346°
2026-04-07 12:14 12.14325 -80.47937 33918 ft 459 kts 346°
2026-04-07 12:15 12.20705 -80.48706 33917 ft 459 kts 346°
2026-04-07 12:15 12.27059 -80.49473 33911 ft 457 kts 346°
2026-04-07 12:16 12.33390 -80.50241 33921 ft 459 kts 346°
2026-04-07 12:16 12.39720 -80.51006 33914 ft 458 kts 346°
2026-04-07 12:17 12.46087 -80.51778 33909 ft 457 kts 346°
2026-04-07 12:17 12.52407 -80.52544 33917 ft 457 kts 346°
2026-04-07 12:18 12.58717 -80.53308 33913 ft 457 kts 346°
2026-04-07 12:18 12.65076 -80.54082 33914 ft 457 kts 346°
2026-04-07 12:19 12.71383 -80.54846 33917 ft 457 kts 346°
2026-04-07 12:19 12.77739 -80.55617 33921 ft 457 kts 346°
2026-04-07 12:20 12.84051 -80.56385 33924 ft 456 kts 346°
2026-04-07 12:20 12.90369 -80.57153 33930 ft 457 kts 346°
2026-04-07 12:21 12.96707 -80.57922 33929 ft 455 kts 346°
2026-04-07 12:21 13.02997 -80.58688 33924 ft 455 kts 346°
2026-04-07 12:22 13.09326 -80.59458 33926 ft 455 kts 346°
2026-04-07 12:22 13.15599 -80.60223 33934 ft 455 kts 346°
2026-04-07 12:23 13.21917 -80.60994 33934 ft 455 kts 346°
2026-04-07 12:23 13.28232 -80.61764 33934 ft 457 kts 346°
2026-04-07 12:24 13.34538 -80.62532 33931 ft 456 kts 346°
2026-04-07 12:24 13.40868 -80.63307 33937 ft 456 kts 346°
2026-04-07 12:25 13.47169 -80.64075 33937 ft 457 kts 346°
2026-04-07 12:25 13.53509 -80.64851 33936 ft 456 kts 346°
2026-04-07 12:26 13.59825 -80.65622 33931 ft 457 kts 346°
2026-04-07 12:26 13.66182 -80.66400 33938 ft 457 kts 346°
2026-04-07 12:27 13.72496 -80.67172 33942 ft 457 kts 346°
2026-04-07 12:27 13.78827 -80.67947 33931 ft 458 kts 346°
2026-04-07 12:28 13.85169 -80.68725 33931 ft 457 kts 346°
2026-04-07 12:29 13.94685 -80.69893 33941 ft 457 kts 346°
2026-04-07 12:29 14.00995 -80.70666 33937 ft 457 kts 346°
2026-04-07 12:30 14.07319 -80.71441 33935 ft 457 kts 345°
2026-04-07 12:30 14.13650 -80.72218 33936 ft 457 kts 345°
2026-04-07 12:31 14.20015 -80.73003 33939 ft 458 kts 346°
2026-04-07 12:31 14.26347 -80.73778 33941 ft 458 kts 345°
2026-04-07 12:32 14.32691 -80.74560 33943 ft 459 kts 345°
2026-04-07 12:32 14.39031 -80.75339 33943 ft 458 kts 345°
2026-04-07 12:33 14.45389 -80.76124 33942 ft 457 kts 345°
2026-04-07 12:33 14.51704 -80.76901 33945 ft 458 kts 345°
2026-04-07 12:34 14.58050 -80.77684 33948 ft 457 kts 345°
2026-04-07 12:34 14.64385 -80.78464 33951 ft 457 kts 345°
2026-04-07 12:35 14.70726 -80.79247 33949 ft 457 kts 345°
2026-04-07 12:35 14.77035 -80.80028 33949 ft 457 kts 345°
2026-04-07 12:36 14.83364 -80.80810 33950 ft 456 kts 345°
2026-04-07 12:36 14.89680 -80.81591 33945 ft 456 kts 345°
2026-04-07 12:37 14.96024 -80.82375 33942 ft 456 kts 345°
2026-04-07 12:37 15.02345 -80.83159 33936 ft 455 kts 345°
2026-04-07 12:38 15.08641 -80.83940 33936 ft 457 kts 345°
2026-04-07 12:38 15.14982 -80.84727 33939 ft 456 kts 345°
2026-04-07 12:39 15.21271 -80.85506 33936 ft 456 kts 344°
2026-04-07 12:39 15.27604 -80.86293 33935 ft 457 kts 345°
2026-04-07 12:40 15.33930 -80.87079 33935 ft 455 kts 345°
2026-04-07 12:40 15.40215 -80.87859 33935 ft 456 kts 345°
2026-04-07 12:41 15.46499 -80.88641 33937 ft 455 kts 345°
2026-04-07 12:41 15.52807 -80.89425 33935 ft 454 kts 345°
2026-04-07 12:42 15.59110 -80.90211 33934 ft 454 kts 345°
2026-04-07 12:42 15.65382 -80.90994 33937 ft 455 kts 345°
2026-04-07 12:43 15.71686 -80.91778 33937 ft 455 kts 345°
2026-04-07 12:43 15.77977 -80.92564 33935 ft 455 kts 345°
2026-04-07 12:44 15.84266 -80.93346 33938 ft 453 kts 345°
2026-04-07 12:44 15.90558 -80.94134 33935 ft 453 kts 345°
2026-04-07 12:45 15.96840 -80.94919 33934 ft 454 kts 345°
2026-04-07 12:45 16.03132 -80.95705 33938 ft 454 kts 345°
2026-04-07 12:46 16.09423 -80.96493 33942 ft 454 kts 345°
2026-04-07 12:46 16.15700 -80.97278 33958 ft 454 kts 345°
2026-04-07 12:47 16.21989 -80.98066 33964 ft 453 kts 345°
2026-04-07 12:47 16.28246 -80.98850 33955 ft 453 kts 345°
2026-04-07 12:48 16.34530 -80.99639 33954 ft 453 kts 345°
2026-04-07 12:48 16.40772 -81.00423 33958 ft 452 kts 345°
2026-04-07 12:49 16.47058 -81.01214 33962 ft 453 kts 345°
2026-04-07 12:49 16.53296 -81.01997 33949 ft 454 kts 345°
2026-04-07 12:50 16.59593 -81.02788 33952 ft 453 kts 345°
2026-04-07 12:50 16.65852 -81.03575 33952 ft 453 kts 345°
2026-04-07 12:51 16.72144 -81.04369 33965 ft 452 kts 345°
2026-04-07 12:51 16.78367 -81.05152 33956 ft 451 kts 345°
2026-04-07 12:52 16.84640 -81.05943 33957 ft 451 kts 345°
2026-04-07 12:52 16.90872 -81.06730 33958 ft 452 kts 345°
2026-04-07 12:53 16.97130 -81.07523 33960 ft 452 kts 345°
2026-04-07 12:53 17.03385 -81.08312 33953 ft 450 kts 345°
2026-04-07 12:54 17.09620 -81.09100 33954 ft 451 kts 346°
2026-04-07 12:54 17.15849 -81.09888 33956 ft 450 kts 345°
2026-04-07 12:55 17.22100 -81.10680 33956 ft 451 kts 345°
2026-04-07 12:55 17.28338 -81.11471 33955 ft 451 kts 345°
2026-04-07 12:56 17.34592 -81.12263 33954 ft 452 kts 345°
2026-04-07 12:56 17.40851 -81.13057 33957 ft 453 kts 345°
2026-04-07 12:57 17.47115 -81.13854 33956 ft 453 kts 346°
2026-04-07 12:57 17.53347 -81.14644 33955 ft 453 kts 345°
2026-04-07 12:58 17.59627 -81.15443 33957 ft 452 kts 346°
2026-04-07 12:58 17.65867 -81.16236 33959 ft 451 kts 345°
2026-04-07 12:59 17.72138 -81.17033 33957 ft 452 kts 345°
2026-04-07 12:59 17.78384 -81.17831 33961 ft 453 kts 345°
2026-04-07 13:00 17.84656 -81.18630 33964 ft 454 kts 345°
2026-04-07 13:00 17.90950 -81.19434 33973 ft 454 kts 345°
2026-04-07 13:01 17.97197 -81.20231 33973 ft 453 kts 345°
2026-04-07 13:01 18.03478 -81.21034 33979 ft 452 kts 345°
2026-04-07 13:02 18.09739 -81.21834 33974 ft 452 kts 345°
2026-04-07 13:02 18.16000 -81.22636 33975 ft 452 kts 345°
2026-04-07 13:03 18.22259 -81.23438 33989 ft 452 kts 345°
2026-04-07 13:03 18.28551 -81.24244 33996 ft 453 kts 345°
2026-04-07 13:04 18.34788 -81.25043 33952 ft 452 kts 345°
2026-04-07 13:04 18.41056 -81.25848 33979 ft 452 kts 345°
2026-04-07 13:05 18.47327 -81.26653 33983 ft 452 kts 345°
2026-04-07 13:05 18.53587 -81.27457 33957 ft 452 kts 345°
2026-04-07 13:06 18.59807 -81.28256 33993 ft 452 kts 345°
2026-04-07 13:06 18.66077 -81.29063 33963 ft 452 kts 345°
2026-04-07 13:07 18.72337 -81.29871 33979 ft 451 kts 345°
2026-04-07 13:07 18.78567 -81.30675 33987 ft 451 kts 346°
2026-04-07 13:08 18.84836 -81.31482 33992 ft 452 kts 346°
2026-04-07 13:08 18.91057 -81.32286 33978 ft 451 kts 346°
2026-04-07 13:09 18.97328 -81.33095 33973 ft 451 kts 346°
2026-04-07 13:09 19.03545 -81.33899 33994 ft 451 kts 346°
2026-04-07 13:10 19.09790 -81.34708 33975 ft 452 kts 346°
2026-04-07 13:10 19.16063 -81.35519 33983 ft 452 kts 346°
2026-04-07 13:11 19.22301 -81.36328 33978 ft 451 kts 346°
2026-04-07 13:11 19.28562 -81.37123 33974 ft 452 kts 347°
2026-04-07 13:12 19.34864 -81.37611 33991 ft 453 kts 349°
2026-04-07 13:12 19.41161 -81.38034 33978 ft 453 kts 349°
2026-04-07 13:13 19.47475 -81.38461 33976 ft 454 kts 349°
2026-04-07 13:13 19.53788 -81.38894 33973 ft 453 kts 349°
2026-04-07 13:14 19.60088 -81.39326 33980 ft 454 kts 349°
2026-04-07 13:14 19.66394 -81.39757 33971 ft 454 kts 349°
2026-04-07 13:15 19.72684 -81.40189 33974 ft 453 kts 349°
2026-04-07 13:15 19.79016 -81.40624 33960 ft 453 kts 350°
2026-04-07 13:16 19.85320 -81.41058 33962 ft 454 kts 350°
2026-04-07 13:16 19.91627 -81.41491 33969 ft 453 kts 350°
2026-04-07 13:17 19.97936 -81.41927 33961 ft 453 kts 350°
2026-04-07 13:17 20.04221 -81.42361 33967 ft 453 kts 350°
2026-04-07 13:18 20.10544 -81.42799 33960 ft 453 kts 350°
2026-04-07 13:18 20.16834 -81.43233 33956 ft 453 kts 350°
2026-04-07 13:19 20.23124 -81.43668 33956 ft 453 kts 350°
2026-04-07 13:19 20.29441 -81.44104 33956 ft 453 kts 350°
2026-04-07 13:20 20.35715 -81.44539 33955 ft 452 kts 350°
2026-04-07 13:20 20.42009 -81.44974 33957 ft 452 kts 350°
2026-04-07 13:21 20.48299 -81.45411 33957 ft 452 kts 350°
2026-04-07 13:21 20.54592 -81.45849 33955 ft 450 kts 350°
2026-04-07 13:22 20.60839 -81.46281 33957 ft 451 kts 350°
2026-04-07 13:22 20.67115 -81.46719 33958 ft 450 kts 350°
2026-04-07 13:23 20.73393 -81.47154 33960 ft 450 kts 350°
2026-04-07 13:23 20.79630 -81.47590 33965 ft 451 kts 350°
2026-04-07 13:24 20.85899 -81.48026 33968 ft 450 kts 350°
2026-04-07 13:24 20.92179 -81.48464 33972 ft 451 kts 350°
2026-04-07 13:25 20.98470 -81.48904 33977 ft 451 kts 350°
2026-04-07 13:25 21.04740 -81.49342 33974 ft 450 kts 350°
2026-04-07 13:26 21.10970 -81.49778 33977 ft 450 kts 350°
2026-04-07 13:26 21.17251 -81.50218 33980 ft 449 kts 351°
2026-04-07 13:27 21.23479 -81.50655 33973 ft 450 kts 351°
2026-04-07 13:27 21.29750 -81.51093 33980 ft 449 kts 351°
2026-04-07 13:28 21.35994 -81.51532 33969 ft 450 kts 351°
2026-04-07 13:28 21.42261 -81.51971 33973 ft 449 kts 350°
2026-04-07 13:29 21.48478 -81.52408 33965 ft 449 kts 350°
2026-04-07 13:29 21.54756 -81.52850 33977 ft 450 kts 351°
2026-04-07 13:30 21.61075 -81.52994 33982 ft 455 kts 356°
2026-04-07 13:30 21.67400 -81.52430 33981 ft 458 kts
2026-04-07 13:31 21.73762 -81.51633 33976 ft 458 kts
2026-04-07 13:31 21.80090 -81.50836 33980 ft 458 kts
2026-04-07 13:32 21.86439 -81.50043 33973 ft 458 kts
2026-04-07 13:32 21.92756 -81.49252 33976 ft 458 kts
2026-04-07 13:33 21.99103 -81.48461 33975 ft 458 kts
2026-04-07 13:33 22.08612 -81.47272 33977 ft 457 kts
2026-04-07 13:34 22.14929 -81.46483 33973 ft 457 kts
2026-04-07 13:34 22.21254 -81.45691 33982 ft 457 kts
2026-04-07 13:35 22.27614 -81.44894 33964 ft 457 kts
2026-04-07 13:35 22.33933 -81.44100 33959 ft 458 kts
2026-04-07 13:36 22.40271 -81.43306 33972 ft 458 kts
2026-04-07 13:36 22.46615 -81.42508 33958 ft 458 kts
2026-04-07 13:37 22.52937 -81.41709 33964 ft 457 kts
2026-04-07 13:37 22.59293 -81.40904 33968 ft 457 kts
2026-04-07 13:38 22.65594 -81.40110 33953 ft 457 kts
2026-04-07 13:38 22.71946 -81.39326 33954 ft 457 kts
2026-04-07 13:39 22.78285 -81.38546 33962 ft 457 kts
2026-04-07 13:39 22.84589 -81.37766 33986 ft 457 kts
2026-04-07 13:40 22.90951 -81.36980 33977 ft 458 kts
2026-04-07 13:40 22.97282 -81.36192 33973 ft 458 kts
2026-04-07 13:41 23.03640 -81.35403 33981 ft 459 kts
2026-04-07 13:41 23.09954 -81.34616 33977 ft 458 kts
2026-04-07 13:42 23.16325 -81.33824 33986 ft 458 kts
2026-04-07 13:42 23.22669 -81.33036 34005 ft 460 kts
2026-04-07 13:43 23.29024 -81.32244 33979 ft 459 kts
2026-04-07 13:43 23.35387 -81.31449 33967 ft 461 kts
2026-04-07 13:44 23.41749 -81.30651 33959 ft 459 kts
2026-04-07 13:44 23.48104 -81.29855 33970 ft 460 kts
2026-04-07 13:45 23.54487 -81.29054 33950 ft 459 kts
2026-04-07 13:45 23.60814 -81.28259 33960 ft 459 kts
2026-04-07 13:46 23.67173 -81.27459 33962 ft 460 kts
2026-04-07 13:46 23.73555 -81.26657 33960 ft 460 kts
2026-04-07 13:47 23.79945 -81.25851 33950 ft 461 kts
2026-04-07 13:47 23.86303 -81.25048 33947 ft 461 kts
2026-04-07 13:48 23.92689 -81.24240 33951 ft 461 kts
2026-04-07 13:48 23.99066 -81.23434 33952 ft 461 kts
2026-04-07 13:49 24.05456 -81.22559 33969 ft 462 kts
2026-04-07 13:49 24.11815 -81.21633 33957 ft 462 kts
2026-04-07 13:50 24.18192 -81.20712 33951 ft 461 kts
2026-04-07 13:50 24.24590 -81.19787 33951 ft 461 kts
2026-04-07 13:51 24.30959 -81.18870 34111 ft 462 kts
2026-04-07 13:51 24.34134 -81.18409 34464 ft 458 kts
2026-04-07 13:51 24.37281 -81.17948 34811 ft 455 kts
2026-04-07 13:52 24.40406 -81.17493 35104 ft 452 kts
2026-04-07 13:52 24.43520 -81.17042 35341 ft 451 kts
2026-04-07 13:52 24.46636 -81.16591 35532 ft 451 kts
2026-04-07 13:52 24.49751 -81.16142 35718 ft 450 kts
2026-04-07 13:53 24.52822 -81.15698 35901 ft 450 kts
2026-04-07 13:53 24.55929 -81.15249 35929 ft 450 kts
2026-04-07 13:53 24.62148 -81.14461 35940 ft 449 kts 359°
2026-04-07 13:54 24.68410 -81.13806 35960 ft 449 kts 358°
2026-04-07 13:54 24.74620 -81.13158 35966 ft 448 kts 358°
2026-04-07 13:55 24.80817 -81.12505 35970 ft 449 kts 358°
2026-04-07 13:55 24.87050 -81.11848 35961 ft 449 kts 358°
2026-04-07 13:56 24.93267 -81.11189 35953 ft 449 kts 358°
2026-04-07 13:56 24.99479 -81.10531 35946 ft 448 kts 358°
2026-04-07 13:57 25.05676 -81.09872 35959 ft 448 kts 358°
2026-04-07 13:57 25.11899 -81.09211 35959 ft 448 kts 359°
2026-04-07 13:58 25.18112 -81.08551 35956 ft 449 kts 359°
2026-04-07 13:58 25.24343 -81.07889 35960 ft 448 kts 359°
2026-04-07 13:59 25.30586 -81.07230 35959 ft 448 kts 359°
2026-04-07 13:59 25.36779 -81.06567 35966 ft 448 kts 359°
2026-04-07 14:00 25.43006 -81.05902 35955 ft 449 kts 359°
2026-04-07 14:00 25.49216 -81.05238 35951 ft 448 kts 359°
2026-04-07 14:01 25.55465 -81.04569 35957 ft 449 kts 359°
2026-04-07 14:01 25.61693 -81.03903 35957 ft 450 kts 359°
2026-04-07 14:02 25.67934 -81.03233 35957 ft 449 kts 360°
2026-04-07 14:02 25.74181 -81.02558 35962 ft 450 kts 360°
2026-04-07 14:03 25.80409 -81.01890 35958 ft 450 kts 360°
2026-04-07 14:03 25.86639 -81.01223 35957 ft 450 kts 359°
2026-04-07 14:04 25.92847 -81.00640 35963 ft 446 kts 354°
2026-04-07 14:04 25.99035 -81.01112 35965 ft 443 kts 349°
2026-04-07 14:05 26.05162 -81.01743 35952 ft 445 kts 349°
2026-04-07 14:05 26.11355 -81.02351 35947 ft 445 kts 349°
2026-04-07 14:06 26.17535 -81.02944 35974 ft 446 kts 350°
2026-04-07 14:06 26.23742 -81.03532 35962 ft 446 kts 350°
2026-04-07 14:07 26.29932 -81.04118 35957 ft 447 kts 350°
2026-04-07 14:07 26.36119 -81.04700 35960 ft 446 kts 350°
2026-04-07 14:08 26.42307 -81.05289 35969 ft 447 kts 349°
2026-04-07 14:08 26.48521 -81.05874 35953 ft 446 kts 349°
2026-04-07 14:09 26.54685 -81.06461 35970 ft 447 kts 350°
2026-04-07 14:09 26.60893 -81.07054 35967 ft 449 kts 351°
2026-04-07 14:10 26.67156 -81.07644 35967 ft 447 kts 351°
2026-04-07 14:10 26.73367 -81.08239 35941 ft 449 kts 350°
2026-04-07 14:11 26.79621 -81.08830 35954 ft 448 kts 350°
2026-04-07 14:11 26.85832 -81.09423 35964 ft 448 kts 351°
2026-04-07 14:12 26.92030 -81.10012 35967 ft 448 kts 350°
2026-04-07 14:12 26.98271 -81.10609 35972 ft 449 kts 350°
2026-04-07 14:13 27.04491 -81.11205 35967 ft 449 kts 351°
2026-04-07 14:13 27.10714 -81.11802 35983 ft 449 kts 351°
2026-04-07 14:14 27.16978 -81.12403 35963 ft 450 kts 349°
2026-04-07 14:14 27.23235 -81.13005 35989 ft 451 kts 351°
2026-04-07 14:15 27.29517 -81.13609 35979 ft 454 kts 351°
2026-04-07 14:15 27.35826 -81.14212 35992 ft 453 kts 351°
2026-04-07 14:16 27.42107 -81.14819 36027 ft 455 kts 351°
2026-04-07 14:16 27.48408 -81.15424 36021 ft 454 kts 351°
2026-04-07 14:17 27.54769 -81.16037 36024 ft 457 kts 351°
2026-04-07 14:17 27.61073 -81.16647 36015 ft 458 kts 351°
2026-04-07 14:18 27.67433 -81.17262 36008 ft 457 kts 352°
2026-04-07 14:18 27.73765 -81.17876 36044 ft 457 kts 352°
2026-04-07 14:19 27.76963 -81.18188 35804 ft 458 kts 352°
2026-04-07 14:19 27.80159 -81.18500 35912 ft 460 kts 352°
2026-04-07 14:19 27.86534 -81.19115 36128 ft 460 kts 352°
2026-04-07 14:20 27.89703 -81.19424 35950 ft 459 kts 352°
2026-04-07 14:20 27.92894 -81.19740 35999 ft 461 kts 352°
2026-04-07 14:20 27.99297 -81.20364 36010 ft 462 kts 352°
2026-04-07 14:21 28.05723 -81.20992 36013 ft 463 kts 352°
2026-04-07 14:21 28.12157 -81.21619 36066 ft 463 kts 352°
2026-04-07 14:22 28.18587 -81.22247 36061 ft 463 kts 352°
2026-04-07 14:22 28.25009 -81.22876 36066 ft 465 kts 352°
2026-04-07 14:23 28.31461 -81.23508 36070 ft 463 kts 352°
2026-04-07 14:23 28.37909 -81.24139 36027 ft 465 kts 352°
2026-04-07 14:24 28.44377 -81.24775 36082 ft 469 kts 352°
2026-04-07 14:24 28.47605 -81.25092 36209 ft 470 kts 352°
2026-04-07 14:24 28.50895 -81.25415 36748 ft 470 kts 352°
2026-04-07 14:25 28.54129 -81.25730 36626 ft 469 kts 352°
2026-04-07 14:25 28.57400 -81.26051 36802 ft 469 kts 352°
2026-04-07 14:25 28.60662 -81.26372 36970 ft 468 kts 351°
2026-04-07 14:25 28.63883 -81.26692 37311 ft 470 kts 351°
2026-04-07 14:26 28.67061 -81.27402 37143 ft 462 kts 337°
2026-04-07 14:26 28.70003 -81.28819 36768 ft 458 kts 328°
2026-04-07 14:26 28.72815 -81.30576 37158 ft 455 kts 323°
2026-04-07 14:26 28.75410 -81.32614 36811 ft 451 kts 320°
2026-04-07 14:27 28.77908 -81.34729 36994 ft 451 kts 318°
2026-04-07 14:27 28.80425 -81.36879 37275 ft 453 kts 318°
2026-04-07 14:27 28.83058 -81.38900 37133 ft 459 kts 326°
2026-04-07 14:27 28.85921 -81.40459 37077 ft 462 kts 332°
2026-04-07 14:28 28.91850 -81.43308 37111 ft 462 kts 333°
2026-04-07 14:28 28.97824 -81.46115 37068 ft 462 kts 333°
2026-04-07 14:29 29.03745 -81.48904 37049 ft 462 kts 333°
2026-04-07 14:29 29.09713 -81.51731 37074 ft 463 kts 332°
2026-04-07 14:30 29.15646 -81.54533 37050 ft 462 kts 334°
2026-04-07 14:30 29.21604 -81.57347 37051 ft 462 kts 333°
2026-04-07 14:31 29.27539 -81.60156 37048 ft 462 kts 333°
2026-04-07 14:31 29.33810 -81.61964 37076 ft 472 kts 351°
2026-04-07 14:32 29.40406 -81.61876 37068 ft 476 kts
2026-04-07 14:32 29.46979 -81.61214 37055 ft 473 kts
2026-04-07 14:33 29.53536 -81.60708 37050 ft 474 kts
2026-04-07 14:33 29.60149 -81.60179 37081 ft 475 kts
2026-04-07 14:34 29.66726 -81.59621 37065 ft 474 kts
2026-04-07 14:34 29.73324 -81.59054 37089 ft 475 kts
2026-04-07 14:35 29.79915 -81.58499 37132 ft 478 kts
2026-04-07 14:35 29.86516 -81.57931 37123 ft 476 kts
2026-04-07 14:36 29.93165 -81.57355 37119 ft 477 kts
2026-04-07 14:36 29.99791 -81.56783 37132 ft 476 kts
2026-04-07 14:37 30.06414 -81.56210 37125 ft 477 kts
2026-04-07 14:37 30.13042 -81.55638 37158 ft 477 kts
2026-04-07 14:38 30.19653 -81.55455 37144 ft 476 kts 354°
2026-04-07 14:38 30.26279 -81.55900 37141 ft 476 kts 354°
2026-04-07 14:39 30.36182 -81.56587 37136 ft 476 kts 353°
2026-04-07 14:40 30.42803 -81.57066 37156 ft 477 kts 353°
2026-04-07 14:40 30.49447 -81.57360 37141 ft 479 kts
2026-04-07 14:41 30.56060 -81.56046 37145 ft 480 kts
2026-04-07 14:41 30.62685 -81.55067 37155 ft 482 kts
2026-04-07 14:42 30.69330 -81.54138 37140 ft 482 kts
2026-04-07 14:42 30.75979 -81.53242 37153 ft 482 kts
2026-04-07 14:43 30.82655 -81.52393 37164 ft 481 kts
2026-04-07 14:43 30.89301 -81.51518 37130 ft 482 kts
2026-04-07 14:44 30.95985 -81.50647 37144 ft 483 kts
2026-04-07 14:44 31.02702 -81.49760 37137 ft 484 kts
2026-04-07 14:45 31.09369 -81.48885 37173 ft 483 kts
2026-04-07 14:45 31.16083 -81.47991 37154 ft 484 kts
2026-04-07 14:46 31.22773 -81.47105 37175 ft 483 kts
2026-04-07 14:46 31.29478 -81.46225 37165 ft 482 kts
2026-04-07 14:47 31.36126 -81.45338 37176 ft 483 kts
2026-04-07 14:47 31.42821 -81.44432 37180 ft 483 kts
2026-04-07 14:48 31.49451 -81.42928 37175 ft 487 kts 13°
2026-04-07 14:48 31.55877 -81.40508 37191 ft 488 kts 19°
2026-04-07 14:49 31.62290 -81.37817 37180 ft 488 kts 18°
2026-04-07 14:49 31.68680 -81.35169 37189 ft 491 kts 18°
2026-04-07 14:50 31.75143 -81.32501 37194 ft 490 kts 19°
2026-04-07 14:50 31.81569 -81.29845 37194 ft 489 kts 18°
2026-04-07 14:51 31.87959 -81.27200 37211 ft 489 kts 18°
2026-04-07 14:51 31.94475 -81.24862 37213 ft 488 kts 11°
2026-04-07 14:52 32.01158 -81.23523 37208 ft 484 kts
2026-04-07 14:52 32.07831 -81.23093 37194 ft 482 kts 357°
2026-04-07 14:53 32.14553 -81.22807 37214 ft 483 kts 359°
2026-04-07 14:53 32.21301 -81.22492 37203 ft 483 kts 358°
2026-04-07 14:54 32.28006 -81.22163 37223 ft 484 kts 358°
2026-04-07 14:54 32.34721 -81.21826 37215 ft 485 kts 359°
2026-04-07 14:55 32.41481 -81.21486 37218 ft 485 kts 357°
2026-04-07 14:55 32.48199 -81.21008 37222 ft 486 kts
2026-04-07 14:56 32.54883 -81.19732 37226 ft 490 kts
2026-04-07 14:56 32.61616 -81.18147 37241 ft 492 kts
2026-04-07 14:57 32.68324 -81.16582 37234 ft 494 kts
2026-04-07 14:57 32.75058 -81.15016 37237 ft 494 kts
2026-04-07 14:58 32.81800 -81.13458 37231 ft 493 kts
2026-04-07 14:58 32.88519 -81.11896 37255 ft 493 kts
2026-04-07 14:59 32.95298 -81.10329 37247 ft 493 kts
2026-04-07 14:59 33.02037 -81.08770 37254 ft 494 kts
2026-04-07 15:00 33.08779 -81.07204 37250 ft 493 kts
2026-04-07 15:00 33.15507 -81.05637 37263 ft 495 kts
2026-04-07 15:01 33.22245 -81.04070 37264 ft 493 kts
2026-04-07 15:01 33.28983 -81.02492 37244 ft 493 kts
2026-04-07 15:02 33.35762 -81.00903 37253 ft 494 kts
2026-04-07 15:02 33.42472 -80.99332 37259 ft 492 kts
2026-04-07 15:03 33.49205 -80.97753 37276 ft 494 kts
2026-04-07 15:03 33.55960 -80.96162 37256 ft 496 kts
2026-04-07 15:04 33.62728 -80.94575 37253 ft 497 kts
2026-04-07 15:04 33.69492 -80.92969 37261 ft 494 kts
2026-04-07 15:05 33.76232 -80.91378 37275 ft 496 kts
2026-04-07 15:05 33.82989 -80.89776 37261 ft 496 kts
2026-04-07 15:06 33.89766 -80.88387 37263 ft 493 kts
2026-04-07 15:06 33.96565 -80.87190 37258 ft 492 kts
2026-04-07 15:07 34.03382 -80.85986 37269 ft 492 kts
2026-04-07 15:07 34.10148 -80.84763 37258 ft 494 kts
2026-04-07 15:08 34.16977 -80.83527 37242 ft 494 kts
2026-04-07 15:08 34.23742 -80.82315 37266 ft 494 kts
2026-04-07 15:09 34.30558 -80.81074 37278 ft 494 kts
2026-04-07 15:09 34.37307 -80.79854 37279 ft 493 kts
2026-04-07 15:10 34.44087 -80.78620 37276 ft 492 kts
2026-04-07 15:10 34.50823 -80.77389 37279 ft 490 kts
2026-04-07 15:11 34.57600 -80.76165 37287 ft 492 kts
2026-04-07 15:11 34.64364 -80.74926 37296 ft 490 kts
2026-04-07 15:12 34.71071 -80.73699 37306 ft 490 kts
2026-04-07 15:12 34.77806 -80.72462 37298 ft 489 kts
2026-04-07 15:13 34.84538 -80.71227 37296 ft 490 kts
2026-04-07 15:13 34.91269 -80.69990 37298 ft 489 kts
2026-04-07 15:14 34.98022 -80.68746 37297 ft 488 kts
2026-04-07 15:14 35.04718 -80.67512 37297 ft 488 kts
2026-04-07 15:15 35.11443 -80.66269 37287 ft 489 kts
2026-04-07 15:15 35.18180 -80.65020 37306 ft 488 kts
2026-04-07 15:16 35.24843 -80.63786 37333 ft 486 kts
2026-04-07 15:16 35.31533 -80.62546 37313 ft 486 kts
2026-04-07 15:17 35.38195 -80.61306 37309 ft 485 kts
2026-04-07 15:17 35.44883 -80.60056 37330 ft 484 kts
2026-04-07 15:18 35.51578 -80.58810 37325 ft 486 kts
2026-04-07 15:18 35.58096 -80.57595 37330 ft 487 kts
2026-04-07 15:19 35.64788 -80.56335 37317 ft 486 kts
2026-04-07 15:19 35.71490 -80.55082 37328 ft 487 kts
2026-04-07 15:20 35.78182 -80.53822 37319 ft 486 kts
2026-04-07 15:20 35.84811 -80.52573 37314 ft 484 kts
2026-04-07 15:21 35.91486 -80.51317 37321 ft 485 kts
2026-04-07 15:21 35.98147 -80.50056 37316 ft 485 kts
2026-04-07 15:22 36.04825 -80.48799 37322 ft 485 kts
2026-04-07 15:22 36.11477 -80.47530 37319 ft 483 kts
2026-04-07 15:23 36.18109 -80.46273 37342 ft 482 kts
2026-04-07 15:23 36.24720 -80.45014 37316 ft 482 kts
2026-04-07 15:24 36.31363 -80.43748 37333 ft 483 kts
2026-04-07 15:24 36.38005 -80.42477 37358 ft 483 kts
2026-04-07 15:25 36.44651 -80.41187 37355 ft 483 kts
2026-04-07 15:25 36.51294 -80.39831 37351 ft 483 kts
2026-04-07 15:26 36.57916 -80.38476 37353 ft 484 kts
2026-04-07 15:26 36.64547 -80.37120 37337 ft 484 kts
2026-04-07 15:27 36.71155 -80.35764 37317 ft 482 kts
2026-04-07 15:27 36.77829 -80.34609 37334 ft 480 kts 358°
2026-04-07 15:28 36.84471 -80.33690 37325 ft 481 kts 358°
2026-04-07 15:28 36.91076 -80.32763 37310 ft 476 kts 358°
2026-04-07 15:29 36.97670 -80.31834 37320 ft 478 kts 358°
2026-04-07 15:29 37.04267 -80.30897 37327 ft 478 kts 358°
2026-04-07 15:30 37.10847 -80.29953 37353 ft 477 kts 358°
2026-04-07 15:30 37.17445 -80.29013 37362 ft 476 kts 358°
2026-04-07 15:31 37.24009 -80.28072 37363 ft 476 kts 358°
2026-04-07 15:31 37.30601 -80.27123 37364 ft 477 kts 358°
2026-04-07 15:32 37.37191 -80.26177 37346 ft 476 kts 358°
2026-04-07 15:32 37.43799 -80.25223 37338 ft 475 kts 358°
2026-04-07 15:33 37.50364 -80.24279 37347 ft 475 kts 358°
2026-04-07 15:33 37.56914 -80.23328 37333 ft 475 kts 358°
2026-04-07 15:34 37.63464 -80.22377 37328 ft 473 kts 358°
2026-04-07 15:34 37.69957 -80.21421 37345 ft 471 kts 357°
2026-04-07 15:35 37.76459 -80.20456 37345 ft 470 kts 357°
2026-04-07 15:35 37.82937 -80.19490 37346 ft 470 kts 357°
2026-04-07 15:36 37.89468 -80.18519 37357 ft 472 kts 358°
2026-04-07 15:36 37.95996 -80.17533 37357 ft 469 kts 357°
2026-04-07 15:37 38.02495 -80.16560 37352 ft 471 kts 357°
2026-04-07 15:37 38.08979 -80.15585 37196 ft 470 kts 357°
2026-04-07 15:38 38.15482 -80.14608 37296 ft 471 kts 357°
2026-04-07 15:38 38.21970 -80.13625 37278 ft 472 kts 357°
2026-04-07 15:38 38.25221 -80.13133 37415 ft 471 kts 357°
2026-04-07 15:39 38.28467 -80.12640 37124 ft 469 kts 357°
2026-04-07 15:39 38.34980 -80.11660 37255 ft 469 kts 356°
2026-04-07 15:40 38.41430 -80.11124 37268 ft 463 kts 352°
2026-04-07 15:40 38.47894 -80.10792 37274 ft 463 kts 352°
2026-04-07 15:41 38.54320 -80.10457 37284 ft 463 kts 352°
2026-04-07 15:41 38.60750 -80.10108 37288 ft 463 kts 352°
2026-04-07 15:42 38.67177 -80.09753 37296 ft 463 kts 352°
2026-04-07 15:42 38.76809 -80.09220 37306 ft 464 kts 352°
2026-04-07 15:43 38.83235 -80.08862 37340 ft 461 kts 352°
2026-04-07 15:43 38.89693 -80.08370 37360 ft 468 kts 356°
2026-04-07 15:44 38.96139 -80.06985 37354 ft 477 kts
2026-04-07 15:44 39.02589 -80.04792 37361 ft 482 kts
2026-04-07 15:45 39.09055 -80.02486 37401 ft 480 kts
2026-04-07 15:45 39.15501 -80.00211 37382 ft 481 kts
2026-04-07 15:46 39.21942 -79.97948 37422 ft 481 kts
2026-04-07 15:46 39.28381 -79.95688 37376 ft 483 kts
2026-04-07 15:47 39.34851 -79.93404 37412 ft 482 kts
2026-04-07 15:47 39.41341 -79.91112 37377 ft 482 kts
2026-04-07 15:48 39.47789 -79.88831 37390 ft 482 kts
2026-04-07 15:48 39.54248 -79.86581 37387 ft 478 kts
2026-04-07 15:49 39.60693 -79.85049 37365 ft 469 kts 357°
2026-04-07 15:49 39.67108 -79.83875 37393 ft 469 kts 357°
2026-04-07 15:50 39.73593 -79.82688 37372 ft 468 kts 357°
2026-04-07 15:50 39.80029 -79.81493 37328 ft 468 kts 357°
2026-04-07 15:51 39.86462 -79.80286 37434 ft 468 kts 357°
2026-04-07 15:51 39.92919 -79.79076 37471 ft 471 kts 357°
2026-04-07 15:52 39.99383 -79.77857 37418 ft 470 kts 357°
2026-04-07 15:52 40.02638 -79.77242 37312 ft 470 kts 357°
2026-04-07 15:52 40.05860 -79.76631 37284 ft 467 kts 357°
2026-04-07 15:53 40.09071 -79.76023 37491 ft 467 kts 357°
2026-04-07 15:53 40.12315 -79.75411 37524 ft 469 kts 357°
2026-04-07 15:53 40.15518 -79.74807 37343 ft 469 kts 357°
2026-04-07 15:53 40.18719 -79.74199 37466 ft 468 kts 357°
2026-04-07 15:54 40.21958 -79.73586 37338 ft 469 kts 357°
2026-04-07 15:54 40.25185 -79.72972 37512 ft 468 kts 357°
2026-04-07 15:54 40.31591 -79.71751 37332 ft 465 kts 357°
2026-04-07 15:55 40.34792 -79.71140 37477 ft 467 kts 357°
2026-04-07 15:55 40.38008 -79.70529 37474 ft 467 kts 357°
2026-04-07 15:55 40.41220 -79.69917 37328 ft 466 kts 357°
2026-04-07 15:55 40.44433 -79.69302 37411 ft 465 kts 357°
2026-04-07 15:56 40.50832 -79.68078 37372 ft 463 kts 357°
2026-04-07 15:56 40.57203 -79.66854 37438 ft 462 kts 357°
2026-04-07 15:57 40.63537 -79.65638 37458 ft 462 kts 357°
2026-04-07 15:57 40.69957 -79.64406 37365 ft 464 kts 357°
2026-04-07 15:58 40.73107 -79.63798 37261 ft 463 kts 357°
2026-04-07 15:58 40.76281 -79.63185 37349 ft 461 kts 357°
2026-04-07 15:58 40.82626 -79.61957 37387 ft 460 kts 357°
2026-04-07 15:59 40.88954 -79.60731 37418 ft 458 kts 357°
2026-04-07 15:59 40.95266 -79.59509 37481 ft 459 kts 357°
2026-04-07 16:00 40.98412 -79.58898 37351 ft 460 kts 357°
2026-04-07 16:00 41.01561 -79.58287 37361 ft 461 kts 357°
2026-04-07 16:00 41.07903 -79.57053 37449 ft 460 kts 357°
2026-04-07 16:01 41.14252 -79.55815 37379 ft 461 kts 357°
2026-04-07 16:01 41.20573 -79.54576 37403 ft 457 kts 357°
2026-04-07 16:02 41.26873 -79.53344 37389 ft 459 kts 357°
2026-04-07 16:02 41.33186 -79.52105 37395 ft 458 kts 357°
2026-04-07 16:03 41.39448 -79.50873 37354 ft 457 kts 357°
2026-04-07 16:03 41.45736 -79.49632 37338 ft 456 kts 357°
2026-04-07 16:04 41.52008 -79.48396 37362 ft 457 kts 358°
2026-04-07 16:04 41.58260 -79.47156 37344 ft 454 kts 358°
2026-04-07 16:05 41.64518 -79.45917 37401 ft 455 kts 357°
2026-04-07 16:05 41.67647 -79.45297 37294 ft 457 kts 357°
2026-04-07 16:05 41.70786 -79.44680 36830 ft 463 kts 358°
2026-04-07 16:06 41.73971 -79.44051 36167 ft 465 kts 358°
2026-04-07 16:06 41.77238 -79.43399 35506 ft 465 kts 358°
2026-04-07 16:06 41.80422 -79.42761 34854 ft 465 kts 358°
2026-04-07 16:06 41.83610 -79.42123 34237 ft 465 kts 358°
2026-04-07 16:07 41.86772 -79.41487 33573 ft 465 kts 358°
2026-04-07 16:07 41.89976 -79.40848 33037 ft 464 kts 358°
2026-04-07 16:07 41.93124 -79.40218 32537 ft 462 kts 358°
2026-04-07 16:07 41.96282 -79.39580 32041 ft 460 kts 358°
2026-04-07 16:08 41.99456 -79.38941 31490 ft 458 kts 358°
2026-04-07 16:08 42.02605 -79.38309 30876 ft 458 kts 358°
2026-04-07 16:08 42.05750 -79.37680 30297 ft 456 kts 359°
2026-04-07 16:08 42.08838 -79.37057 29709 ft 452 kts 359°
2026-04-07 16:09 42.11940 -79.36569 29102 ft 444 kts 355°
2026-04-07 16:09 42.15000 -79.36274 28611 ft 436 kts 354°
2026-04-07 16:09 42.18048 -79.36023 28121 ft 430 kts 353°
2026-04-07 16:09 42.21003 -79.35792 27612 ft 425 kts 354°
2026-04-07 16:10 42.23924 -79.35562 27099 ft 419 kts 353°
2026-04-07 16:10 42.26831 -79.35332 26487 ft 415 kts 353°
2026-04-07 16:10 42.29692 -79.35109 25934 ft 413 kts 354°
2026-04-07 16:10 42.32531 -79.34883 25449 ft 407 kts 354°
2026-04-07 16:11 42.35313 -79.34658 24972 ft 402 kts 354°
2026-04-07 16:11 42.38083 -79.34435 24443 ft 397 kts 354°
2026-04-07 16:11 42.40837 -79.34215 23878 ft 393 kts 354°
2026-04-07 16:11 42.43530 -79.34000 23381 ft 389 kts 355°
2026-04-07 16:12 42.46206 -79.33782 22856 ft 384 kts 354°
2026-04-07 16:12 42.48861 -79.33569 22330 ft 380 kts 355°
2026-04-07 16:12 42.51492 -79.33358 21799 ft 376 kts 355°
2026-04-07 16:12 42.54055 -79.33148 21250 ft 372 kts 355°
2026-04-07 16:13 42.56624 -79.32940 20740 ft 368 kts 355°
2026-04-07 16:13 42.59162 -79.32734 20211 ft 363 kts 355°
2026-04-07 16:13 42.61679 -79.32531 19626 ft 361 kts 355°
2026-04-07 16:13 42.64161 -79.32333 18995 ft 360 kts 356°
2026-04-07 16:14 42.66640 -79.32133 18448 ft 357 kts 356°
2026-04-07 16:14 42.69121 -79.31930 17959 ft 352 kts 356°
2026-04-07 16:14 42.71520 -79.31734 17473 ft 347 kts 356°
2026-04-07 16:14 42.73922 -79.31535 17006 ft 342 kts 356°
2026-04-07 16:15 42.76281 -79.31343 16554 ft 338 kts 356°
2026-04-07 16:15 42.78593 -79.31154 16106 ft 333 kts 357°
2026-04-07 16:15 42.80885 -79.30969 15661 ft 328 kts 357°
2026-04-07 16:15 42.83142 -79.30886 15197 ft 322 kts 354°
2026-04-07 16:16 42.85358 -79.31001 14687 ft 319 kts 351°
2026-04-07 16:16 42.87558 -79.31207 14217 ft 316 kts 351°
2026-04-07 16:16 42.89738 -79.31424 13726 ft 313 kts 351°
2026-04-07 16:16 42.91900 -79.31640 13267 ft 311 kts 351°
2026-04-07 16:17 42.94043 -79.31853 12790 ft 308 kts 352°
2026-04-07 16:17 42.96169 -79.32065 12363 ft 305 kts 352°
2026-04-07 16:17 42.98279 -79.32275 11915 ft 302 kts 352°
2026-04-07 16:17 43.00361 -79.32482 11468 ft 300 kts 352°
2026-04-07 16:18 43.02432 -79.32688 11034 ft 297 kts 352°
2026-04-07 16:18 43.04471 -79.32892 10610 ft 294 kts 353°
2026-04-07 16:18 43.06485 -79.33090 10453 ft 281 kts 353°
2026-04-07 16:18 43.08385 -79.33276 10319 ft 268 kts 352°
2026-04-07 16:19 43.10204 -79.33454 10191 ft 256 kts 352°
2026-04-07 16:19 43.11941 -79.33626 10061 ft 245 kts 352°
2026-04-07 16:19 43.13631 -79.33795 9737 ft 243 kts 352°
2026-04-07 16:19 43.15305 -79.33966 9379 ft 242 kts 352°
2026-04-07 16:20 43.16981 -79.34135 9033 ft 240 kts 352°
2026-04-07 16:20 43.18639 -79.34303 8701 ft 238 kts 353°
2026-04-07 16:20 43.20285 -79.34469 8373 ft 236 kts 353°
2026-04-07 16:20 43.21915 -79.34632 8045 ft 235 kts 353°
2026-04-07 16:21 43.23534 -79.34795 7728 ft 233 kts 353°
2026-04-07 16:21 43.25137 -79.34956 7409 ft 231 kts 353°
2026-04-07 16:21 43.26737 -79.35117 7214 ft 223 kts 353°
2026-04-07 16:21 43.28240 -79.35264 7144 ft 211 kts 353°
2026-04-07 16:22 43.29707 -79.35363 7059 ft 213 kts 358°
2026-04-07 16:22 43.31188 -79.35139 7010 ft 215 kts
2026-04-07 16:22 43.32650 -79.34675 7020 ft 216 kts
2026-04-07 16:22 43.34111 -79.34175 7023 ft 216 kts
2026-04-07 16:23 43.35570 -79.33672 7028 ft 216 kts 10°
2026-04-07 16:23 43.37032 -79.33170 7030 ft 217 kts
2026-04-07 16:23 43.38496 -79.32667 7028 ft 217 kts 10°
2026-04-07 16:23 43.39957 -79.32166 7027 ft 217 kts
2026-04-07 16:24 43.41431 -79.31712 6783 ft 218 kts
2026-04-07 16:24 43.42891 -79.32110 6370 ft 213 kts 330°
2026-04-07 16:24 43.44017 -79.33395 6079 ft 210 kts 317°
2026-04-07 16:24 43.45066 -79.34753 5792 ft 208 kts 319°
2026-04-07 16:25 43.46126 -79.36098 5509 ft 206 kts 319°
2026-04-07 16:25 43.47183 -79.37439 5210 ft 205 kts 319°
2026-04-07 16:25 43.48217 -79.38754 4931 ft 203 kts 318°
2026-04-07 16:25 43.49247 -79.40076 4660 ft 201 kts 318°
2026-04-07 16:26 43.50253 -79.41381 4421 ft 198 kts 318°
2026-04-07 16:26 43.51236 -79.42658 4159 ft 195 kts 318°
2026-04-07 16:26 43.52230 -79.43947 3866 ft 193 kts 318°
2026-04-07 16:26 43.53193 -79.45197 3627 ft 189 kts 317°
2026-04-07 16:27 43.54137 -79.46423 3618 ft 179 kts 318°
2026-04-07 16:27 43.55000 -79.47544 3576 ft 164 kts 318°
2026-04-07 16:27 43.55798 -79.48582 3454 ft 151 kts 318°
2026-04-07 16:27 43.56536 -79.49528 3343 ft 137 kts 319°
2026-04-07 16:28 43.57230 -79.50409 3238 ft 135 kts 318°
2026-04-07 16:28 43.57905 -79.51275 3037 ft 133 kts 318°
2026-04-07 16:28 43.58587 -79.52161 2903 ft 134 kts 318°
2026-04-07 16:28 43.59259 -79.53038 2707 ft 133 kts 317°
2026-04-07 16:29 43.59928 -79.53915 2519 ft 132 kts 318°
2026-04-07 16:29 43.60600 -79.54796 2330 ft 132 kts 317°
2026-04-07 16:29 43.61254 -79.55653 2175 ft 130 kts 317°
2026-04-07 16:29 43.61910 -79.56513 1979 ft 129 kts 317°
2026-04-07 16:30 43.62558 -79.57362 1786 ft 129 kts 317°
2026-04-07 16:30 43.63207 -79.58211 1603 ft 128 kts 317°
2026-04-07 16:30 43.63857 -79.59063 1420 ft 128 kts 316°
2026-04-07 16:30 43.64491 -79.59918 1248 ft 128 kts 317°
2026-04-07 16:31 43.65144 -79.60749 1041 ft 127 kts 317°
2026-04-07 16:31 43.65778 -79.61580 869 ft 127 kts 316°
2026-04-07 16:31 43.66405 -79.62412 719 ft 124 kts 317°
2026-04-07 16:31 43.67027 -79.63212 537 ft 120 kts 317°
2026-04-07 16:32 43.67557 -79.63906 537 ft 81 kts 317°
2026-04-07 16:32 43.67827 -79.64256 546 ft 26 kts 320°
2026-04-07 16:32 43.67982 -79.64356 549 ft 22 kts 345°
2026-04-07 16:32 43.68083 -79.64369 551 ft 9 kts 28°
2026-04-07 16:33 43.68132 -79.64310 552 ft 8 kts 46°
2026-04-07 16:33 43.68171 -79.64253 553 ft 7 kts 45°
2026-04-07 16:33 43.68208 -79.64199 553 ft 7 kts 51°
2026-04-07 16:33 43.68246 -79.64138 553 ft 10 kts 49°
2026-04-07 16:34 43.68296 -79.64064 554 ft 10 kts 46°
2026-04-07 16:34 43.68350 -79.63990 556 ft 11 kts 44°
2026-04-07 16:34 43.68403 -79.63917 556 ft 10 kts 46°
2026-04-07 16:34 43.68455 -79.63838 556 ft 11 kts 47°
2026-04-07 16:35 43.68516 -79.63748 556 ft 13 kts 47°
2026-04-07 16:35 43.68582 -79.63654 556 ft 13 kts 45°
2026-04-07 16:35 43.68650 -79.63557 555 ft 15 kts 45°
2026-04-07 16:35 43.68721 -79.63452 556 ft 13 kts 48°
2026-04-07 16:36 43.68785 -79.63360 555 ft 13 kts 45°
2026-04-07 16:36 43.68838 -79.63264 555 ft 11 kts 81°
2026-04-07 16:36 43.68796 -79.63165 555 ft 13 kts 135°
2026-04-07 16:36 43.68728 -79.63073 555 ft 14 kts 136°
2026-04-07 16:37 43.68652 -79.62980 554 ft 15 kts 139°
2026-04-07 16:37 43.68567 -79.62871 552 ft 17 kts 135°
2026-04-07 16:37 43.68480 -79.62750 551 ft 17 kts 136°
2026-04-07 16:37 43.68390 -79.62633 551 ft 17 kts 137°
2026-04-07 16:38 43.68306 -79.62527 551 ft 14 kts 137°
2026-04-07 16:38 43.68232 -79.62433 551 ft 14 kts 138°
2026-04-07 16:38 43.68153 -79.62334 551 ft 15 kts 139°
2026-04-07 16:38 43.68071 -79.62229 551 ft 16 kts 137°
2026-04-07 16:39 43.67991 -79.62125 551 ft 13 kts 137°
2026-04-07 16:39 43.67970 -79.62027 551 ft 11 kts 65°
2026-04-07 16:39 43.68002 -79.61922 551 ft 12 kts 68°
2026-04-07 16:39 43.68055 -79.61841 551 ft 11 kts 34°
2026-04-07 16:40 43.68109 -79.61770 551 ft 10 kts 49°
2026-04-07 16:40 43.68119 -79.61687 551 ft 9 kts 112°
2026-04-07 16:40 43.68081 -79.61625 551 ft 4 kts 136°
2026-04-07 16:40 43.68073 -79.61614 551 ft 0 kts 136°